Monticello, NY

5:45 AM EDT on August 18, 2017 (GMT -0400)
Sullivan County International

Weather History for KMSV - January, 2014

Change the Weather History Date:

Sunday, January 12, 2014

  Actual Average Record
Temperature  
Mean Temperature 35 °F -  
Max Temperature 42 °F 26 °F 51 °F (2017)
Min Temperature 28 °F 14 °F 8 °F (1997)
Degree Days  
Heating Degree Days 30    
Moisture  
Dew Point 24 °F    
Average Humidity 65    
Maximum Humidity 81    
Minimum Humidity 56    
Precipitation  
Precipitation 0.01 in - - ()
Sea Level Pressure  
Sea Level Pressure 29.74 in    
Wind  
Wind Speed 13 mph (WNW)    
Max Wind Speed 26 mph    
Max Gust Speed 37 mph    
Visibility 10 miles    
Events      
Averages and records for this station are not official NWS values.
T = Trace of Precipitation, MM = Missing Value Source: NWS Daily Summary

Daily Weather History Graph

Daily Weather History Graph

Search for Another Location

Airport or City:

Trip Planner

Search our weather history database for the weather conditions in past years. The results will help you decide how hot, cold, wet, or windy it might be!

Date:

Astronomy

Jan. 12, 2014 Rise Set
Actual Time 7:24 AM EST 4:50 PM EST
Civil Twilight 6:54 AM EST 5:21 PM EST
Nautical Twilight 6:19 AM EST 5:55 PM EST
Astronomical Twilight 5:46 AM EST 6:29 PM EST
Moon 2:16 PM EST (1/12) 4:21 AM EST (1/12)
Length of Visible Light 10h 27m
Length of Day
9h 25m
Waxing Gibbous, 89% of the Moon is Illuminated
Jan 12
Waxing Gibbous
Jan 15
Full
Jan 24
Last Quarter
Jan 30
New
Feb 6
First Quarter

Hourly Weather History & Observations

Time (EST) Temp. Windchill Dew Point Humidity Pressure Visibility Wind Dir Wind Speed Gust Speed Precip Events Conditions
12:15 AM 42.8 °F 36.6 °F 35.6 °F 76% 29.39 in 10.0 mi WNW 11.5 mph 16.1 mph N/A   Overcast
12:35 AM 42.8 °F 35.8 °F 33.8 °F 70% 29.40 in 10.0 mi West 13.8 mph 21.9 mph N/A   Overcast
12:55 AM 42.8 °F 36.6 °F 33.8 °F 70% 29.42 in 10.0 mi WNW 11.5 mph - N/A   Overcast
1:15 AM 41.0 °F 33.5 °F 33.8 °F 76% 29.43 in 6.0 mi WNW 13.8 mph 25.3 mph N/A   Overcast
1:35 AM 39.2 °F 30.8 °F 32.0 °F 75% 29.44 in 9.0 mi WNW 15.0 mph 25.3 mph 0.01 in   Overcast
1:55 AM 37.4 °F 30.3 °F 32.0 °F 81% 29.45 in 10.0 mi WNW 10.4 mph 18.4 mph 0.01 in   Overcast
2:15 AM 37.4 °F 28.5 °F 30.2 °F 75% 29.46 in 10.0 mi WNW 15.0 mph 24.2 mph N/A   Overcast
2:35 AM 37.4 °F 27.8 °F 28.4 °F 70% 29.48 in 10.0 mi WNW 17.3 mph 23.0 mph N/A   Mostly Cloudy
2:55 AM 37.4 °F 26.9 °F 28.4 °F 70% 29.49 in 10.0 mi WNW 20.7 mph 26.5 mph N/A   Mostly Cloudy
3:15 AM 37.4 °F 27.5 °F 26.6 °F 65% 29.50 in 10.0 mi WNW 18.4 mph 31.1 mph N/A   Overcast
3:35 AM 37.4 °F 29.3 °F 26.6 °F 65% 29.50 in 10.0 mi WNW 12.7 mph 20.7 mph N/A   Overcast
3:55 AM 37.4 °F 31.4 °F 26.6 °F 65% 29.51 in 10.0 mi WNW 8.1 mph - N/A   Overcast
4:15 AM 35.6 °F 27.5 °F 26.6 °F 70% 29.51 in 10.0 mi WNW 11.5 mph 18.4 mph N/A   Overcast
4:35 AM 35.6 °F 27.5 °F 26.6 °F 70% 29.52 in 10.0 mi WNW 11.5 mph - N/A   Overcast
4:55 AM 35.6 °F 28.0 °F 26.6 °F 70% 29.53 in 10.0 mi WNW 10.4 mph 20.7 mph N/A   Overcast
5:15 AM 35.6 °F 27.1 °F 26.6 °F 70% 29.53 in 10.0 mi WNW 12.7 mph 25.3 mph N/A   Overcast
5:35 AM 35.6 °F 26.2 °F 24.8 °F 65% 29.54 in 10.0 mi WNW 15.0 mph 23.0 mph N/A   Overcast
5:55 AM 35.6 °F 23.7 °F 24.8 °F 65% 29.54 in 10.0 mi WNW 24.2 mph 36.8 mph N/A   Overcast
6:15 AM 35.6 °F 25.9 °F 24.8 °F 65% 29.56 in 10.0 mi WNW 16.1 mph 28.8 mph N/A   Overcast
6:35 AM 35.6 °F 26.2 °F 24.8 °F 65% 29.57 in 10.0 mi WNW 15.0 mph 21.9 mph N/A   Overcast
6:55 AM 35.6 °F 27.1 °F 24.8 °F 65% 29.59 in 10.0 mi WNW 12.7 mph 19.6 mph N/A   Overcast
7:15 AM 35.6 °F 27.5 °F 24.8 °F 65% 29.60 in 10.0 mi WNW 11.5 mph 19.6 mph N/A   Overcast
7:35 AM 35.6 °F 24.5 °F 24.8 °F 65% 29.61 in 10.0 mi WNW 20.7 mph 29.9 mph N/A   Overcast
7:55 AM 35.6 °F 26.2 °F 23.0 °F 60% 29.63 in 10.0 mi WNW 15.0 mph 26.5 mph N/A   Overcast
8:15 AM 35.6 °F 26.2 °F 23.0 °F 60% 29.65 in 10.0 mi WNW 15.0 mph 33.4 mph N/A   Overcast
8:35 AM 35.6 °F 25.9 °F 23.0 °F 60% 29.66 in 10.0 mi West 16.1 mph 27.6 mph N/A   Overcast
8:55 AM 35.6 °F 25.5 °F 23.0 °F 60% 29.67 in 10.0 mi WNW 17.3 mph 27.6 mph N/A   Overcast
9:15 AM 35.6 °F 26.2 °F 21.2 °F 56% 29.69 in 10.0 mi WNW 15.0 mph 31.1 mph N/A   Overcast
9:35 AM 35.6 °F 25.9 °F 21.2 °F 56% 29.70 in 10.0 mi WNW 16.1 mph 23.0 mph N/A   Overcast
9:55 AM 35.6 °F 26.6 °F 21.2 °F 56% 29.71 in 10.0 mi WNW 13.8 mph 27.6 mph N/A   Overcast
10:15 AM 35.6 °F 24.8 °F 21.2 °F 56% 29.72 in 10.0 mi West 19.6 mph 28.8 mph N/A   Overcast
10:35 AM 35.6 °F 25.2 °F 21.2 °F 56% 29.73 in 10.0 mi WNW 18.4 mph 24.2 mph N/A   Overcast
10:55 AM 35.6 °F 25.5 °F 21.2 °F 56% 29.74 in 10.0 mi WNW 17.3 mph 31.1 mph N/A   Overcast
11:15 AM 35.6 °F 26.2 °F 21.2 °F 56% 29.74 in 10.0 mi WNW 15.0 mph 29.9 mph N/A   Overcast
11:35 AM 35.6 °F 23.2 °F 23.0 °F 60% 29.74 in 10.0 mi WNW 26.5 mph 34.5 mph N/A   Overcast
11:55 AM 35.6 °F 27.5 °F 23.0 °F 60% 29.75 in 10.0 mi West 11.5 mph 24.2 mph N/A   Overcast
12:15 PM 35.6 °F 25.5 °F 23.0 °F 60% 29.75 in 10.0 mi WNW 17.3 mph 24.2 mph N/A   Overcast
12:35 PM 35.6 °F 24.5 °F 23.0 °F 60% 29.75 in 10.0 mi WNW 20.7 mph 27.6 mph N/A   Overcast
12:55 PM 35.6 °F 24.5 °F 23.0 °F 60% 29.76 in 10.0 mi WNW 20.7 mph 32.2 mph N/A   Overcast
1:15 PM 35.6 °F 25.9 °F 23.0 °F 60% 29.75 in 10.0 mi WNW 16.1 mph 25.3 mph N/A   Overcast
1:35 PM 35.6 °F 26.2 °F 21.2 °F 56% 29.76 in 10.0 mi WNW 15.0 mph 23.0 mph N/A   Overcast
1:55 PM 35.6 °F 26.6 °F 21.2 °F 56% 29.78 in 10.0 mi WNW 13.8 mph 20.7 mph N/A   Overcast
2:15 PM 35.6 °F 26.2 °F 23.0 °F 60% 29.79 in 10.0 mi West 15.0 mph 21.9 mph N/A   Overcast
2:35 PM 35.6 °F 26.6 °F 21.2 °F 56% 29.81 in 10.0 mi WNW 13.8 mph 27.6 mph N/A   Overcast
2:55 PM 35.6 °F 27.5 °F 23.0 °F 60% 29.83 in 10.0 mi WNW 11.5 mph 26.5 mph N/A   Overcast
3:15 PM 33.8 °F 24.3 °F 21.2 °F 60% 29.84 in 10.0 mi WNW 13.8 mph 20.7 mph N/A   Overcast
3:35 PM 33.8 °F 25.3 °F 21.2 °F 60% 29.85 in 10.0 mi WNW 11.5 mph 21.9 mph N/A   Overcast
3:55 PM 33.8 °F 24.3 °F 21.2 °F 60% 29.86 in 10.0 mi WNW 13.8 mph 18.4 mph N/A   Overcast
4:15 PM 33.8 °F 25.8 °F 23.0 °F 65% 29.87 in 10.0 mi WNW 10.4 mph 19.6 mph N/A   Overcast
4:35 PM 33.8 °F 24.3 °F 23.0 °F 65% 29.89 in 10.0 mi WNW 13.8 mph 19.6 mph N/A   Overcast
4:55 PM 33.8 °F 27.7 °F 23.0 °F 65% 29.90 in 10.0 mi West 6.9 mph - N/A   Overcast
5:15 PM 33.8 °F 27.0 °F 23.0 °F 65% 29.91 in 10.0 mi West 8.1 mph - N/A   Overcast
5:35 PM 33.8 °F 27.0 °F 23.0 °F 65% 29.92 in 10.0 mi WNW 8.1 mph - N/A   Overcast
5:55 PM 33.8 °F 25.3 °F 23.0 °F 65% 29.94 in 10.0 mi WNW 11.5 mph 17.3 mph N/A   Overcast
6:15 PM 33.8 °F 25.3 °F 23.0 °F 65% 29.94 in 10.0 mi WNW 11.5 mph 21.9 mph N/A   Overcast
6:35 PM 33.8 °F 26.4 °F 21.2 °F 60% 29.95 in 10.0 mi WNW 9.2 mph 19.6 mph N/A   Overcast
6:55 PM 33.8 °F 25.3 °F 21.2 °F 60% 29.95 in 10.0 mi WNW 11.5 mph - N/A   Overcast
7:15 PM 32.0 °F 24.2 °F 21.2 °F 64% 29.95 in 10.0 mi NW 9.2 mph - N/A   Scattered Clouds
7:35 PM 32.0 °F 24.2 °F 21.2 °F 64% 29.96 in 10.0 mi WNW 9.2 mph - N/A   Partly Cloudy
7:55 PM 32.0 °F 23.0 °F 21.2 °F 64% 29.96 in 10.0 mi WNW 11.5 mph - N/A   Partly Cloudy
8:15 PM 30.2 °F 23.4 °F 21.2 °F 69% 29.97 in 10.0 mi West 6.9 mph - N/A   Scattered Clouds
8:35 PM 30.2 °F 24.3 °F 21.2 °F 69% 29.97 in 10.0 mi West 5.8 mph - N/A   Scattered Clouds
8:55 PM 30.2 °F 24.3 °F 21.2 °F 69% 29.99 in 10.0 mi West 5.8 mph - N/A   Mostly Cloudy
9:15 PM 30.2 °F 23.4 °F 21.2 °F 69% 29.99 in 10.0 mi West 6.9 mph - N/A   Overcast
9:35 PM 30.2 °F 22.6 °F 21.2 °F 69% 29.99 in 10.0 mi WNW 8.1 mph - N/A   Mostly Cloudy
9:55 PM 30.2 °F 24.3 °F 21.2 °F 69% 29.99 in 10.0 mi West 5.8 mph - N/A   Clear
10:15 PM 28.4 °F 23.3 °F 19.4 °F 69% 30.00 in 10.0 mi WSW 4.6 mph - N/A   Clear
10:35 PM 28.4 °F 24.6 °F 21.2 °F 74% 30.00 in 10.0 mi SW 3.5 mph - N/A   Clear
10:55 PM 28.4 °F 23.3 °F 19.4 °F 69% 30.00 in 10.0 mi West 4.6 mph - N/A   Clear
11:15 PM 28.4 °F 23.3 °F 21.2 °F 74% 30.01 in 10.0 mi WSW 4.6 mph - N/A   Clear
11:35 PM 28.4 °F 24.6 °F 21.2 °F 74% 30.02 in 10.0 mi WSW 3.5 mph - N/A   Clear
11:55 PM 28.4 °F - 21.2 °F 74% 30.01 in 10.0 mi Calm Calm - N/A   Clear